Year,Month,Day,Hour,Minute,Value (Times are PST for temperature in C)
2009,06,07,00,00,12.20
2009,06,07,00,01,12.20
2009,06,07,00,02,12.20
2009,06,07,00,03,12.20
2009,06,07,00,04,12.20
2009,06,07,00,05,12.20
2009,06,07,00,06,12.30
2009,06,07,00,07,12.30
2009,06,07,00,08,12.30
2009,06,07,00,09,12.30
2009,06,07,00,10,12.30
2009,06,07,00,11,12.30
2009,06,07,00,12,12.30
2009,06,07,00,13,12.30
2009,06,07,00,14,12.30
2009,06,07,00,15,12.30
2009,06,07,00,16,12.30
2009,06,07,00,17,12.30
2009,06,07,00,18,12.30
2009,06,07,00,19,12.30
2009,06,07,00,20,12.40
2009,06,07,00,21,12.40
2009,06,07,00,22,12.40
2009,06,07,00,23,12.40
2009,06,07,00,24,12.40
2009,06,07,00,25,12.40
2009,06,07,00,26,12.40
2009,06,07,00,27,12.40
2009,06,07,00,28,12.40
2009,06,07,00,29,12.40
2009,06,07,00,30,12.40
2009,06,07,00,31,12.40
2009,06,07,00,32,12.40
2009,06,07,00,33,12.40
2009,06,07,00,34,12.40
2009,06,07,00,35,12.40
2009,06,07,00,36,12.40
2009,06,07,00,37,12.40
2009,06,07,00,38,12.30
2009,06,07,00,39,12.30
2009,06,07,00,40,12.30
2009,06,07,00,41,12.20
2009,06,07,00,42,12.20
2009,06,07,00,43,12.20
2009,06,07,00,44,12.20
2009,06,07,00,45,12.20
2009,06,07,00,46,12.10
2009,06,07,00,47,12.10
2009,06,07,00,48,12.10
2009,06,07,00,49,12.10
2009,06,07,00,50,12.10
2009,06,07,00,51,12.00
2009,06,07,00,52,12.00
2009,06,07,00,53,12.00
2009,06,07,00,54,12.00
2009,06,07,00,55,12.00
2009,06,07,00,56,11.90
2009,06,07,00,57,11.90
2009,06,07,00,58,11.90
2009,06,07,00,59,11.90
2009,06,07,01,00,11.80
2009,06,07,01,01,11.80
2009,06,07,01,02,11.80
2009,06,07,01,03,11.70
2009,06,07,01,04,11.70
2009,06,07,01,05,11.70
2009,06,07,01,06,11.70
2009,06,07,01,07,11.70
2009,06,07,01,08,11.60
2009,06,07,01,09,11.60
2009,06,07,01,10,11.60
2009,06,07,01,11,11.60
2009,06,07,01,12,11.60
2009,06,07,01,13,11.60
2009,06,07,01,14,11.60
2009,06,07,01,15,11.60
2009,06,07,01,16,11.60
2009,06,07,01,17,11.60
2009,06,07,01,18,11.60
2009,06,07,01,19,11.50
2009,06,07,01,20,11.60
2009,06,07,01,21,11.60
2009,06,07,01,22,11.60
2009,06,07,01,23,11.60
2009,06,07,01,24,11.60
2009,06,07,01,25,11.60
2009,06,07,01,26,11.60
2009,06,07,01,27,11.50
2009,06,07,01,28,11.50
2009,06,07,01,29,11.60
2009,06,07,01,30,11.60
2009,06,07,01,31,11.50
2009,06,07,01,32,11.50
2009,06,07,01,33,11.50
2009,06,07,01,34,11.50
2009,06,07,01,35,11.40
2009,06,07,01,36,11.50
2009,06,07,01,37,11.50
2009,06,07,01,38,11.60
2009,06,07,01,39,11.60
2009,06,07,01,40,11.60
2009,06,07,01,41,11.60
2009,06,07,01,42,11.70
2009,06,07,01,43,11.70
2009,06,07,01,44,11.70
2009,06,07,01,45,11.70
2009,06,07,01,46,11.70
2009,06,07,01,47,11.70
2009,06,07,01,48,11.70
2009,06,07,01,49,11.70
2009,06,07,01,50,11.70
2009,06,07,01,51,11.70
2009,06,07,01,52,11.70
2009,06,07,01,53,11.70
2009,06,07,01,54,11.70
2009,06,07,01,55,11.70
2009,06,07,01,56,11.70
2009,06,07,01,57,11.70
2009,06,07,01,58,11.70
2009,06,07,01,59,11.70
2009,06,07,02,00,11.70
2009,06,07,02,01,11.70
2009,06,07,02,02,11.70
2009,06,07,02,03,11.70
2009,06,07,02,04,11.70
2009,06,07,02,05,11.70
2009,06,07,02,06,11.70
2009,06,07,02,07,11.70
2009,06,07,02,08,11.70
2009,06,07,02,09,11.70
2009,06,07,02,10,11.70
2009,06,07,02,11,11.70
2009,06,07,02,12,11.80
2009,06,07,02,13,11.80
2009,06,07,02,14,11.80
2009,06,07,02,15,11.80
2009,06,07,02,16,11.80
2009,06,07,02,17,11.80
2009,06,07,02,18,11.80
2009,06,07,02,19,11.90
2009,06,07,02,20,11.90
2009,06,07,02,21,11.90
2009,06,07,02,22,11.90
2009,06,07,02,23,11.90
2009,06,07,02,24,11.90
2009,06,07,02,25,11.90
2009,06,07,02,26,11.90
2009,06,07,02,27,11.90
2009,06,07,02,28,11.90
2009,06,07,02,29,11.90
2009,06,07,02,30,11.90
2009,06,07,02,31,11.90
2009,06,07,02,32,11.90
2009,06,07,02,33,11.90
2009,06,07,02,34,11.90
2009,06,07,02,35,11.90
2009,06,07,02,36,11.90
2009,06,07,02,37,11.90
2009,06,07,02,38,11.90
2009,06,07,02,39,11.90
2009,06,07,02,40,11.90
2009,06,07,02,41,11.80
2009,06,07,02,42,11.90
2009,06,07,02,43,11.90
2009,06,07,02,44,11.90
2009,06,07,02,45,11.90
2009,06,07,02,46,11.90
2009,06,07,02,47,11.90
2009,06,07,02,48,11.90
2009,06,07,02,49,12.00
2009,06,07,02,50,12.00
2009,06,07,02,51,12.00
2009,06,07,02,52,12.00
2009,06,07,02,53,12.00
2009,06,07,02,54,12.00
2009,06,07,02,55,12.00
2009,06,07,02,56,11.90
2009,06,07,02,57,11.90
2009,06,07,02,58,11.90
2009,06,07,02,59,11.80
2009,06,07,03,00,11.80
2009,06,07,03,01,11.80
2009,06,07,03,02,11.80
2009,06,07,03,03,11.80
2009,06,07,03,04,11.80
2009,06,07,03,05,11.80
2009,06,07,03,06,11.80
2009,06,07,03,07,11.80
2009,06,07,03,08,11.80
2009,06,07,03,09,11.80
2009,06,07,03,10,11.80
2009,06,07,03,11,11.80
2009,06,07,03,12,11.80
2009,06,07,03,13,11.80
2009,06,07,03,14,11.90
2009,06,07,03,15,11.90
2009,06,07,03,16,11.90
2009,06,07,03,17,11.90
2009,06,07,03,18,11.90
2009,06,07,03,19,11.90
2009,06,07,03,20,11.90
2009,06,07,03,21,11.90
2009,06,07,03,22,11.90
2009,06,07,03,23,11.90
2009,06,07,03,24,11.80
2009,06,07,03,25,11.80
2009,06,07,03,26,11.80
2009,06,07,03,27,11.80
2009,06,07,03,28,11.80
2009,06,07,03,29,11.80
2009,06,07,03,30,11.80
2009,06,07,03,31,11.80
2009,06,07,03,32,11.80
2009,06,07,03,33,11.80
2009,06,07,03,34,11.80
2009,06,07,03,35,11.80
2009,06,07,03,36,11.80
2009,06,07,03,37,11.80
2009,06,07,03,38,11.80
2009,06,07,03,39,11.80
2009,06,07,03,40,11.80
2009,06,07,03,41,11.80
2009,06,07,03,42,11.80
2009,06,07,03,43,11.80
2009,06,07,03,44,11.80
2009,06,07,03,45,11.80
2009,06,07,03,46,11.80
2009,06,07,03,47,11.80
2009,06,07,03,48,11.80
2009,06,07,03,49,11.80
2009,06,07,03,50,11.80
2009,06,07,03,51,11.80
2009,06,07,03,52,11.80
2009,06,07,03,53,11.80
2009,06,07,03,54,11.80
2009,06,07,03,55,11.80
2009,06,07,03,56,11.80
2009,06,07,03,57,11.80
2009,06,07,03,58,11.80
2009,06,07,03,59,11.80
2009,06,07,04,00,11.80
2009,06,07,04,01,11.90
2009,06,07,04,02,11.90
2009,06,07,04,03,11.90
2009,06,07,04,04,11.90
2009,06,07,04,05,11.90
2009,06,07,04,06,11.90
2009,06,07,04,07,11.90
2009,06,07,04,08,11.90
2009,06,07,04,09,11.90
2009,06,07,04,10,11.90
2009,06,07,04,11,11.90
2009,06,07,04,12,11.90
2009,06,07,04,13,11.90
2009,06,07,04,14,11.90
2009,06,07,04,15,11.90
2009,06,07,04,16,11.90
2009,06,07,04,17,11.90
2009,06,07,04,18,11.90
2009,06,07,04,19,12.00
2009,06,07,04,20,12.00
2009,06,07,04,21,12.00
2009,06,07,04,22,12.00
2009,06,07,04,23,12.00
2009,06,07,04,24,12.10
2009,06,07,04,25,12.10
2009,06,07,04,26,12.10
2009,06,07,04,27,12.00
2009,06,07,04,28,12.00
2009,06,07,04,29,12.00
2009,06,07,04,30,12.00
2009,06,07,04,31,12.00
2009,06,07,04,32,12.00
2009,06,07,04,33,12.00
2009,06,07,04,34,11.90
2009,06,07,04,35,11.90
2009,06,07,04,36,11.90
2009,06,07,04,37,11.90
2009,06,07,04,38,11.90
2009,06,07,04,39,11.90
2009,06,07,04,40,11.90
2009,06,07,04,41,11.80
2009,06,07,04,42,11.80
2009,06,07,04,43,11.80
2009,06,07,04,44,11.80
2009,06,07,04,45,11.90
2009,06,07,04,46,11.90
2009,06,07,04,47,11.90
2009,06,07,04,48,11.90
2009,06,07,04,49,11.90
2009,06,07,04,50,11.90
2009,06,07,04,51,11.90
2009,06,07,04,52,11.90
2009,06,07,04,53,11.90
2009,06,07,04,54,11.90
2009,06,07,04,55,11.90
2009,06,07,04,56,11.90
2009,06,07,04,57,11.90
2009,06,07,04,58,11.90
2009,06,07,04,59,11.90
2009,06,07,05,00,11.90
2009,06,07,05,01,12.00
2009,06,07,05,02,12.00
2009,06,07,05,03,12.00
2009,06,07,05,04,12.00
2009,06,07,05,05,12.00
2009,06,07,05,06,12.00
2009,06,07,05,07,12.00
2009,06,07,05,08,12.00
2009,06,07,05,09,12.00
2009,06,07,05,10,12.00
2009,06,07,05,11,12.00
2009,06,07,05,12,12.00
2009,06,07,05,13,12.00
2009,06,07,05,14,12.10
2009,06,07,05,15,12.10
2009,06,07,05,16,12.10
2009,06,07,05,17,12.10
2009,06,07,05,18,12.10
2009,06,07,05,19,12.10
2009,06,07,05,20,12.20
2009,06,07,05,21,12.20
2009,06,07,05,22,12.20
2009,06,07,05,23,12.20
2009,06,07,05,24,12.20
2009,06,07,05,25,12.20
2009,06,07,05,26,12.20
2009,06,07,05,27,12.20
2009,06,07,05,28,12.20
2009,06,07,05,29,12.20
2009,06,07,05,30,12.20
2009,06,07,05,31,12.10
2009,06,07,05,32,12.10
2009,06,07,05,33,12.10
2009,06,07,05,34,12.10
2009,06,07,05,35,12.10
2009,06,07,05,36,12.10
2009,06,07,05,37,12.10
2009,06,07,05,38,12.10
2009,06,07,05,39,12.10
2009,06,07,05,40,12.10
2009,06,07,05,41,12.10
2009,06,07,05,42,12.10
2009,06,07,05,43,12.20
2009,06,07,05,44,12.20
2009,06,07,05,45,12.20
2009,06,07,05,46,12.20
2009,06,07,05,47,12.20
2009,06,07,05,48,12.20
2009,06,07,05,49,12.20
2009,06,07,05,50,12.20
2009,06,07,05,51,12.20
2009,06,07,05,52,12.20
2009,06,07,05,53,12.20
2009,06,07,05,54,12.20
2009,06,07,05,55,12.10
2009,06,07,05,56,12.10
2009,06,07,05,57,12.10
2009,06,07,05,58,12.10
2009,06,07,05,59,12.10
2009,06,07,06,00,12.20
2009,06,07,06,01,12.20
2009,06,07,06,02,12.20
2009,06,07,06,03,12.20
2009,06,07,06,04,12.20
2009,06,07,06,05,12.20
2009,06,07,06,06,12.20
2009,06,07,06,07,12.20
2009,06,07,06,08,12.20
2009,06,07,06,09,12.30
2009,06,07,06,10,12.30
2009,06,07,06,11,12.30
2009,06,07,06,12,12.30
2009,06,07,06,13,12.30
2009,06,07,06,14,12.30
2009,06,07,06,15,12.30
2009,06,07,06,16,12.30
2009,06,07,06,17,12.30
2009,06,07,06,18,12.30
2009,06,07,06,19,12.30
2009,06,07,06,20,12.30
2009,06,07,06,21,12.30
2009,06,07,06,22,12.30
2009,06,07,06,23,12.40
2009,06,07,06,24,12.40
2009,06,07,06,25,12.40
2009,06,07,06,26,12.40
2009,06,07,06,27,12.40
2009,06,07,06,28,12.50
2009,06,07,06,29,12.50
2009,06,07,06,30,12.50
2009,06,07,06,31,12.60
2009,06,07,06,32,12.60
2009,06,07,06,33,12.60
2009,06,07,06,34,12.60
2009,06,07,06,35,12.60
2009,06,07,06,36,12.60
2009,06,07,06,37,12.60
2009,06,07,06,38,12.60
2009,06,07,06,39,12.60
2009,06,07,06,40,12.70
2009,06,07,06,41,12.70
2009,06,07,06,42,12.60
2009,06,07,06,43,12.70
2009,06,07,06,44,12.70
2009,06,07,06,45,12.70
2009,06,07,06,46,12.70
2009,06,07,06,47,12.70
2009,06,07,06,48,12.70
2009,06,07,06,49,12.60
2009,06,07,06,50,12.60
2009,06,07,06,51,12.60
2009,06,07,06,52,12.60
2009,06,07,06,53,12.60
2009,06,07,06,54,12.60
2009,06,07,06,55,12.60
2009,06,07,06,56,12.60
2009,06,07,06,57,12.60
2009,06,07,06,58,12.60
2009,06,07,06,59,12.60
2009,06,07,07,00,12.70
2009,06,07,07,01,12.70
2009,06,07,07,02,12.70
2009,06,07,07,03,12.70
2009,06,07,07,04,12.70
2009,06,07,07,05,12.70
2009,06,07,07,06,12.80
2009,06,07,07,07,12.80
2009,06,07,07,08,12.80
2009,06,07,07,09,12.80
2009,06,07,07,10,12.80
2009,06,07,07,11,12.80
2009,06,07,07,12,12.80
2009,06,07,07,13,12.80
2009,06,07,07,14,12.90
2009,06,07,07,15,12.90
2009,06,07,07,16,12.90
2009,06,07,07,17,12.90
2009,06,07,07,18,12.90
2009,06,07,07,19,12.90
2009,06,07,07,20,12.90
2009,06,07,07,21,12.90
2009,06,07,07,22,12.90
2009,06,07,07,23,12.90
2009,06,07,07,24,13.00
2009,06,07,07,25,13.00
2009,06,07,07,26,13.00
2009,06,07,07,27,13.00
2009,06,07,07,28,13.10
2009,06,07,07,29,13.10
2009,06,07,07,30,13.10
2009,06,07,07,31,13.10
2009,06,07,07,32,13.10
2009,06,07,07,33,13.10
2009,06,07,07,34,13.10
2009,06,07,07,35,13.20
2009,06,07,07,36,13.20
2009,06,07,07,37,13.20
2009,06,07,07,38,13.20
2009,06,07,07,39,13.30
2009,06,07,07,40,13.30
2009,06,07,07,41,13.30
2009,06,07,07,42,13.30
2009,06,07,07,43,13.30
2009,06,07,07,44,13.40
2009,06,07,07,45,13.40
2009,06,07,07,46,13.40
2009,06,07,07,47,13.50
2009,06,07,07,48,13.50
2009,06,07,07,49,13.60
2009,06,07,07,50,13.60
2009,06,07,07,51,13.60
2009,06,07,07,52,13.70
2009,06,07,07,53,13.70
2009,06,07,07,54,13.70
2009,06,07,07,55,13.70
2009,06,07,07,56,13.80
2009,06,07,07,57,13.80
2009,06,07,07,58,13.80
2009,06,07,07,59,13.80
2009,06,07,08,00,13.80
2009,06,07,08,01,13.80
2009,06,07,08,02,13.90
2009,06,07,08,03,13.90
2009,06,07,08,04,13.90
2009,06,07,08,05,13.90
2009,06,07,08,06,13.90
2009,06,07,08,07,13.90
2009,06,07,08,08,13.90
2009,06,07,08,09,13.90
2009,06,07,08,10,13.90
2009,06,07,08,11,13.90
2009,06,07,08,12,13.90
2009,06,07,08,13,13.90
2009,06,07,08,14,13.90
2009,06,07,08,15,13.80
2009,06,07,08,16,13.80
2009,06,07,08,17,13.80
2009,06,07,08,18,13.80
2009,06,07,08,19,13.80
2009,06,07,08,20,13.80
2009,06,07,08,21,13.80
2009,06,07,08,22,13.80
2009,06,07,08,23,13.80
2009,06,07,08,24,13.80
2009,06,07,08,25,13.70
2009,06,07,08,26,13.70
2009,06,07,08,27,13.70
2009,06,07,08,28,13.70
2009,06,07,08,29,13.70
2009,06,07,08,30,13.70
2009,06,07,08,31,13.70
2009,06,07,08,32,13.70
2009,06,07,08,33,13.70
2009,06,07,08,34,13.70
2009,06,07,08,35,13.70
2009,06,07,08,36,13.70
2009,06,07,08,37,13.70
2009,06,07,08,38,13.70
2009,06,07,08,39,13.70
2009,06,07,08,40,13.70
2009,06,07,08,41,13.70
2009,06,07,08,42,13.70
2009,06,07,08,43,13.70
2009,06,07,08,44,13.70
2009,06,07,08,45,13.80
2009,06,07,08,46,13.80
2009,06,07,08,47,13.80
2009,06,07,08,48,13.80
2009,06,07,08,49,13.80
2009,06,07,08,50,13.80
2009,06,07,08,51,13.80
2009,06,07,08,52,13.90
2009,06,07,08,53,13.90
2009,06,07,08,54,14.00
2009,06,07,08,55,14.00
2009,06,07,08,56,14.10
2009,06,07,08,57,14.10
2009,06,07,08,58,14.10
2009,06,07,08,59,14.10
2009,06,07,09,00,14.10
2009,06,07,09,01,14.20
2009,06,07,09,02,14.20
2009,06,07,09,03,14.20
2009,06,07,09,04,14.20
2009,06,07,09,05,14.30
2009,06,07,09,06,14.30
2009,06,07,09,07,14.30
2009,06,07,09,08,14.40
2009,06,07,09,09,14.40
2009,06,07,09,10,14.50
2009,06,07,09,11,14.60
2009,06,07,09,12,14.60
2009,06,07,09,13,14.70
2009,06,07,09,14,14.70
2009,06,07,09,15,14.70
2009,06,07,09,16,14.80
2009,06,07,09,17,14.80
2009,06,07,09,18,14.90
2009,06,07,09,19,15.00
2009,06,07,09,20,15.00
2009,06,07,09,21,15.00
2009,06,07,09,22,15.10
2009,06,07,09,23,15.30
2009,06,07,09,24,15.30
2009,06,07,09,25,15.30
2009,06,07,09,26,15.30
2009,06,07,09,27,15.30
2009,06,07,09,28,15.30
2009,06,07,09,29,15.30
2009,06,07,09,30,15.30
2009,06,07,09,31,15.20
2009,06,07,09,32,15.10
2009,06,07,09,33,15.10
2009,06,07,09,34,15.00
2009,06,07,09,35,15.10
2009,06,07,09,36,15.10
2009,06,07,09,37,15.10
2009,06,07,09,38,15.10
2009,06,07,09,39,15.20
2009,06,07,09,40,15.20
2009,06,07,09,41,15.30
2009,06,07,09,42,15.30
2009,06,07,09,43,15.40
2009,06,07,09,44,15.60
2009,06,07,09,45,15.60
2009,06,07,09,46,15.70
2009,06,07,09,47,15.70
2009,06,07,09,48,15.80
2009,06,07,09,49,15.80
2009,06,07,09,50,15.90
2009,06,07,09,51,16.00
2009,06,07,09,52,16.10
2009,06,07,09,53,16.30
2009,06,07,09,54,16.50
2009,06,07,09,55,16.60
2009,06,07,09,56,16.80
2009,06,07,09,57,17.00
2009,06,07,09,58,17.20
2009,06,07,09,59,17.30
2009,06,07,10,00,17.40
2009,06,07,10,01,17.50
2009,06,07,10,02,17.60
2009,06,07,10,03,17.60
2009,06,07,10,04,17.70
2009,06,07,10,05,17.60
2009,06,07,10,06,17.40
2009,06,07,10,07,17.30
2009,06,07,10,08,17.20
2009,06,07,10,09,17.30
2009,06,07,10,10,17.30
2009,06,07,10,11,17.30
2009,06,07,10,12,17.30
2009,06,07,10,13,17.30
2009,06,07,10,14,17.30
2009,06,07,10,15,17.20
2009,06,07,10,16,17.30
2009,06,07,10,17,17.30
2009,06,07,10,18,17.40
2009,06,07,10,19,17.40
2009,06,07,10,20,17.40
2009,06,07,10,21,17.40
2009,06,07,10,22,17.40
2009,06,07,10,23,17.30
2009,06,07,10,24,17.30
2009,06,07,10,25,17.30
2009,06,07,10,26,17.20
2009,06,07,10,27,17.10
2009,06,07,10,28,17.10
2009,06,07,10,29,17.00
2009,06,07,10,30,16.90
2009,06,07,10,31,16.90
2009,06,07,10,32,16.90
2009,06,07,10,33,16.90
2009,06,07,10,34,16.90
2009,06,07,10,35,16.90
2009,06,07,10,36,16.90
2009,06,07,10,37,16.90
2009,06,07,10,38,16.90
2009,06,07,10,39,16.90
2009,06,07,10,40,16.80
2009,06,07,10,41,16.80
2009,06,07,10,42,16.80
2009,06,07,10,43,16.80
2009,06,07,10,44,16.70
2009,06,07,10,45,16.70
2009,06,07,10,46,16.70
2009,06,07,10,47,16.70
2009,06,07,10,48,16.70
2009,06,07,10,49,16.70
2009,06,07,10,50,16.70
2009,06,07,10,51,16.70
2009,06,07,10,52,16.80
2009,06,07,10,53,16.80
2009,06,07,10,54,16.80
2009,06,07,10,55,16.90
2009,06,07,10,56,17.00
2009,06,07,10,57,17.10
2009,06,07,10,58,17.20
2009,06,07,10,59,17.30
2009,06,07,11,00,17.40
2009,06,07,11,01,17.30
2009,06,07,11,02,17.30
2009,06,07,11,03,17.40
2009,06,07,11,04,17.40
2009,06,07,11,05,17.40
2009,06,07,11,06,17.40
2009,06,07,11,07,17.50
2009,06,07,11,08,17.50
2009,06,07,11,09,17.50
2009,06,07,11,10,17.40
2009,06,07,11,11,17.40
2009,06,07,11,12,17.30
2009,06,07,11,13,17.20
2009,06,07,11,14,17.00
2009,06,07,11,15,16.80
2009,06,07,11,16,16.70
2009,06,07,11,17,16.60
2009,06,07,11,18,16.60
2009,06,07,11,19,16.50
2009,06,07,11,20,16.50
2009,06,07,11,21,16.50
2009,06,07,11,22,16.40
2009,06,07,11,23,16.40
2009,06,07,11,24,16.30
2009,06,07,11,25,16.30
2009,06,07,11,26,16.20
2009,06,07,11,27,16.20
2009,06,07,11,28,16.20
2009,06,07,11,29,16.20
2009,06,07,11,30,16.20
2009,06,07,11,31,16.20
2009,06,07,11,32,16.20
2009,06,07,11,33,16.20
2009,06,07,11,34,16.30
2009,06,07,11,35,16.30
2009,06,07,11,36,16.30
2009,06,07,11,37,16.40
2009,06,07,11,38,16.40
2009,06,07,11,39,16.40
2009,06,07,11,40,16.40
2009,06,07,11,41,16.50
2009,06,07,11,42,16.50
2009,06,07,11,43,16.50
2009,06,07,11,44,16.50
2009,06,07,11,45,16.50
2009,06,07,11,46,16.40
2009,06,07,11,47,16.40
2009,06,07,11,48,16.30
2009,06,07,11,49,16.30
2009,06,07,11,50,16.30
2009,06,07,11,51,16.30
2009,06,07,11,52,16.30
2009,06,07,11,53,16.30
2009,06,07,11,54,16.30
2009,06,07,11,55,16.40
2009,06,07,11,56,16.40
2009,06,07,11,57,16.40
2009,06,07,11,58,16.50
2009,06,07,11,59,16.50
2009,06,07,12,00,16.60
2009,06,07,12,01,16.60
2009,06,07,12,02,16.60
2009,06,07,12,03,16.60
2009,06,07,12,04,16.60
2009,06,07,12,05,16.60
2009,06,07,12,06,16.60
2009,06,07,12,07,16.70
2009,06,07,12,08,16.70
2009,06,07,12,09,16.80
2009,06,07,12,10,16.90
2009,06,07,12,11,16.90
2009,06,07,12,12,17.10
2009,06,07,12,13,17.20
2009,06,07,12,14,17.40
2009,06,07,12,15,17.50
2009,06,07,12,16,17.70
2009,06,07,12,17,17.80
2009,06,07,12,18,18.00
2009,06,07,12,19,18.10
2009,06,07,12,20,18.30
2009,06,07,12,21,18.40
2009,06,07,12,22,18.60
2009,06,07,12,23,18.80
2009,06,07,12,24,18.90
2009,06,07,12,25,18.90
2009,06,07,12,26,19.00
2009,06,07,12,27,19.00
2009,06,07,12,28,19.00
2009,06,07,12,29,18.90
2009,06,07,12,30,19.00
2009,06,07,12,31,19.10
2009,06,07,12,32,19.10
2009,06,07,12,33,19.00
2009,06,07,12,34,18.90
2009,06,07,12,35,18.90
2009,06,07,12,36,18.80
2009,06,07,12,37,18.80
2009,06,07,12,38,18.80
2009,06,07,12,39,18.90
2009,06,07,12,40,18.90
2009,06,07,12,41,18.90
2009,06,07,12,42,18.90
2009,06,07,12,43,18.90
2009,06,07,12,44,18.90
2009,06,07,12,45,19.00
2009,06,07,12,46,19.00
2009,06,07,12,47,19.00
2009,06,07,12,48,19.00
2009,06,07,12,49,19.10
2009,06,07,12,50,19.10
2009,06,07,12,51,19.10
2009,06,07,12,52,19.10
2009,06,07,12,53,19.10
2009,06,07,12,54,19.20
2009,06,07,12,55,19.20
2009,06,07,12,56,19.20
2009,06,07,12,57,19.20
2009,06,07,12,58,19.10
2009,06,07,12,59,19.00
2009,06,07,13,00,19.00
2009,06,07,13,01,19.00
2009,06,07,13,02,19.00
2009,06,07,13,03,19.10
2009,06,07,13,04,19.10
2009,06,07,13,05,19.10
2009,06,07,13,06,19.00
2009,06,07,13,07,19.00
2009,06,07,13,08,19.00
2009,06,07,13,09,19.10
2009,06,07,13,10,19.20
2009,06,07,13,11,19.30
2009,06,07,13,12,19.20
2009,06,07,13,13,19.30
2009,06,07,13,14,19.30
2009,06,07,13,15,19.40
2009,06,07,13,16,19.40
2009,06,07,13,17,19.40
2009,06,07,13,18,19.40
2009,06,07,13,19,19.40
2009,06,07,13,20,19.40
2009,06,07,13,21,19.50
2009,06,07,13,22,19.60
2009,06,07,13,23,19.60
2009,06,07,13,24,19.70
2009,06,07,13,25,19.70
2009,06,07,13,26,19.70
2009,06,07,13,27,19.70
2009,06,07,13,28,19.60
2009,06,07,13,29,19.50
2009,06,07,13,30,19.30
2009,06,07,13,31,19.10
2009,06,07,13,32,19.00
2009,06,07,13,33,18.90
2009,06,07,13,34,18.80
2009,06,07,13,35,18.80
2009,06,07,13,36,18.80
2009,06,07,13,37,18.90
2009,06,07,13,38,19.10
2009,06,07,13,39,19.30
2009,06,07,13,40,19.40
2009,06,07,13,41,19.60
2009,06,07,13,42,19.60
2009,06,07,13,43,19.60
2009,06,07,13,44,19.70
2009,06,07,13,45,19.80
2009,06,07,13,46,19.80
2009,06,07,13,47,19.70
2009,06,07,13,48,19.60
2009,06,07,13,49,19.60
2009,06,07,13,50,19.60
2009,06,07,13,51,19.60
2009,06,07,13,52,19.60
2009,06,07,13,53,19.70
2009,06,07,13,54,19.60
2009,06,07,13,55,19.60
2009,06,07,13,56,19.40
2009,06,07,13,57,19.40
2009,06,07,13,58,19.30
2009,06,07,13,59,19.30
2009,06,07,14,00,19.20
2009,06,07,14,01,19.20
2009,06,07,14,02,19.20
2009,06,07,14,03,19.20
2009,06,07,14,04,19.30
2009,06,07,14,05,19.30
2009,06,07,14,06,19.40
2009,06,07,14,07,19.40
2009,06,07,14,08,19.50
2009,06,07,14,09,19.70
2009,06,07,14,10,19.80
2009,06,07,14,11,19.90
2009,06,07,14,12,19.90
2009,06,07,14,13,19.80
2009,06,07,14,14,19.90
2009,06,07,14,15,19.80
2009,06,07,14,16,19.90
2009,06,07,14,17,19.90
2009,06,07,14,18,19.90
2009,06,07,14,19,19.80
2009,06,07,14,20,19.80
2009,06,07,14,21,19.80
2009,06,07,14,22,19.80
2009,06,07,14,23,19.80
2009,06,07,14,24,19.80
2009,06,07,14,25,19.80
2009,06,07,14,26,19.70
2009,06,07,14,27,19.70
2009,06,07,14,28,19.70
2009,06,07,14,29,19.70
2009,06,07,14,30,19.70
2009,06,07,14,31,19.70
2009,06,07,14,32,19.80
2009,06,07,14,33,19.80
2009,06,07,14,34,19.80
2009,06,07,14,35,19.80
2009,06,07,14,36,19.90
2009,06,07,14,37,19.90
2009,06,07,14,38,20.00
2009,06,07,14,39,20.10
2009,06,07,14,40,20.20
2009,06,07,14,41,20.20
2009,06,07,14,42,20.10
2009,06,07,14,43,20.10
2009,06,07,14,44,20.00
2009,06,07,14,45,20.10
2009,06,07,14,46,20.10
2009,06,07,14,47,20.10
2009,06,07,14,48,20.20
2009,06,07,14,49,20.30
2009,06,07,14,50,20.40
2009,06,07,14,51,20.60
2009,06,07,14,52,20.60
2009,06,07,14,53,20.60
2009,06,07,14,54,20.70
2009,06,07,14,55,20.70
2009,06,07,14,56,20.70
2009,06,07,14,57,20.70
2009,06,07,14,58,20.70
2009,06,07,14,59,20.70
2009,06,07,15,00,20.70
2009,06,07,15,01,20.70
2009,06,07,15,02,20.60
2009,06,07,15,03,20.50
2009,06,07,15,04,20.40
2009,06,07,15,05,20.40
2009,06,07,15,06,20.50
2009,06,07,15,07,20.50
2009,06,07,15,08,20.60
2009,06,07,15,09,20.60
2009,06,07,15,10,20.60
2009,06,07,15,11,20.60
2009,06,07,15,12,20.50
2009,06,07,15,13,20.30
2009,06,07,15,14,20.20
2009,06,07,15,15,20.10
2009,06,07,15,16,20.00
2009,06,07,15,17,19.80
2009,06,07,15,18,19.70
2009,06,07,15,19,19.60
2009,06,07,15,20,19.50
2009,06,07,15,21,19.50
2009,06,07,15,22,19.50
2009,06,07,15,23,19.50
2009,06,07,15,24,19.40
2009,06,07,15,25,19.40
2009,06,07,15,26,19.40
2009,06,07,15,27,19.40
2009,06,07,15,28,19.40
2009,06,07,15,29,19.50
2009,06,07,15,30,19.60
2009,06,07,15,31,19.70
2009,06,07,15,32,19.80
2009,06,07,15,33,20.00
2009,06,07,15,34,20.20
2009,06,07,15,35,20.40
2009,06,07,15,36,20.30
2009,06,07,15,37,20.10
2009,06,07,15,38,19.90
2009,06,07,15,39,19.80
2009,06,07,15,40,19.70
2009,06,07,15,41,19.60
2009,06,07,15,42,19.60
2009,06,07,15,43,19.70
2009,06,07,15,44,19.70
2009,06,07,15,45,19.80
2009,06,07,15,46,19.80
2009,06,07,15,47,19.70
2009,06,07,15,48,19.60
2009,06,07,15,49,19.50
2009,06,07,15,50,19.40
2009,06,07,15,51,19.40
2009,06,07,15,52,19.40
2009,06,07,15,53,19.50
2009,06,07,15,54,19.50
2009,06,07,15,55,19.40
2009,06,07,15,56,19.40
2009,06,07,15,57,19.30
2009,06,07,15,58,19.30
2009,06,07,15,59,19.40
2009,06,07,16,00,19.40
2009,06,07,16,01,19.50
2009,06,07,16,02,19.50
2009,06,07,16,03,19.60
2009,06,07,16,04,19.60
2009,06,07,16,05,19.70
2009,06,07,16,06,19.80
2009,06,07,16,07,19.80
2009,06,07,16,08,19.80
2009,06,07,16,09,19.80
2009,06,07,16,10,19.70
2009,06,07,16,11,19.70
2009,06,07,16,12,19.60
2009,06,07,16,13,19.50
2009,06,07,16,14,19.40
2009,06,07,16,15,19.30
2009,06,07,16,16,19.20
2009,06,07,16,17,19.20
2009,06,07,16,18,19.10
2009,06,07,16,19,19.10
2009,06,07,16,20,19.20
2009,06,07,16,21,19.30
2009,06,07,16,22,19.50
2009,06,07,16,23,19.60
2009,06,07,16,24,19.60
2009,06,07,16,25,19.70
2009,06,07,16,26,19.90
2009,06,07,16,27,19.90
2009,06,07,16,28,20.00
2009,06,07,16,29,20.00
2009,06,07,16,30,19.90
2009,06,07,16,31,19.90
2009,06,07,16,32,20.00
2009,06,07,16,33,20.00
2009,06,07,16,34,19.90
2009,06,07,16,35,19.90
2009,06,07,16,36,19.90
2009,06,07,16,37,19.90
2009,06,07,16,38,19.80
2009,06,07,16,39,19.80
2009,06,07,16,40,19.70
2009,06,07,16,41,19.80
2009,06,07,16,42,19.80
2009,06,07,16,43,19.90
2009,06,07,16,44,19.90
2009,06,07,16,45,20.00
2009,06,07,16,46,20.00
2009,06,07,16,47,19.90
2009,06,07,16,48,19.70
2009,06,07,16,49,19.70
2009,06,07,16,50,19.70
2009,06,07,16,51,19.70
2009,06,07,16,52,19.80
2009,06,07,16,53,19.90
2009,06,07,16,54,19.90
2009,06,07,16,55,20.00
2009,06,07,16,56,20.00
2009,06,07,16,57,20.00
2009,06,07,16,58,20.10
2009,06,07,16,59,20.00
2009,06,07,17,00,20.00
2009,06,07,17,01,19.90
2009,06,07,17,02,19.80
2009,06,07,17,03,19.80
2009,06,07,17,04,19.80
2009,06,07,17,05,19.80
2009,06,07,17,06,19.80
2009,06,07,17,07,19.80
2009,06,07,17,08,19.90
2009,06,07,17,09,19.90
2009,06,07,17,10,19.90
2009,06,07,17,11,20.00
2009,06,07,17,12,20.00
2009,06,07,17,13,19.90
2009,06,07,17,14,19.80
2009,06,07,17,15,19.70
2009,06,07,17,16,19.70
2009,06,07,17,17,19.60
2009,06,07,17,18,19.60
2009,06,07,17,19,19.60